This demonstration page uses our WeatherBlox Daily Observations layout. Learn more.

Hourly Observations for February 7, 2020

Temp ( °F °C ) Dew Point ( °F °C ) Humidity (%) Winds ( mph kmh ) Pressure ( in mb ) Visibility ( mi km ) Precip ( " mm )
12:15 am 00:15 Cloudy with Light Snow 34 1 29 -1.5 84 84 N 9 15 29.73 1007 5 8.0467 0 0
12:35 am 00:35 Cloudy 33 0.7 29 -1.9 83 83 N 7 11 29.74 1007 10 16.0934 0 0
12:55 am 00:55 Cloudy 33 0.3 28 -2.1 84 84 NNW 10 17 29.75 1007 10 16.0934 0 0
1:15 am 01:15 Mostly Cloudy 32 -0.1 28 -2.2 86 86 N 8 13 29.75 1008 10 16.0934 0 0
1:35 am 01:35 Cloudy 32 0.2 29 -1.7 87 87 N 9 15 29.75 1008 10 16.0934 0 0
1:55 am 01:55 Cloudy 32 0.1 28 -2 86 86 NNW 10 17 29.76 1008 10 16.0934 0 0
2:15 am 02:15 Partly Cloudy 31 -0.5 27 -3 83 83 NNW 10 17 29.78 1008 10 16.0934 0 0
2:35 am 02:35 Clear 30 -1 26 -3.2 85 85 NNW 10 17 29.79 1009 10 16.0934 0 0
2:55 am 02:55 Clear 29 -1.5 26 -3.4 87 87 NNW 7 11 29.8 1009 10 16.0934 0 0
3:15 am 03:15 Partly Cloudy 29 -1.7 26 -3.6 87 87 NNW 7 11 29.8 1009 10 16.0934 0 0
3:35 am 03:35 Cloudy 29 -1.4 26 -3.5 86 86 NNW 9 15 29.8 1009 10 16.0934 0 0
3:55 am 03:55 Cloudy 30 -1.1 26 -3.2 86 86 NW 6 9 29.79 1009 10 16.0934 0 0
4:15 am 04:15 Cloudy 30 -1 27 -3 86 86 WNW 7 11 29.8 1009 10 16.0934 0 0
4:35 am 04:35 Cloudy 30 -1.1 27 -3 87 87 NW 6 9 29.81 1010 10 16.0934 0 0
4:55 am 04:55 Cloudy with Light Snow 29 -1.5 27 -3 90 90 NW 7 11 29.83 1010 10 16.0934 0 0
5:15 am 05:15 Cloudy 30 -1.1 27 -2.6 90 90 NW 8 13 29.82 1010 10 16.0934 0 0
5:35 am 05:35 Cloudy with Light Snow 31 -0.7 28 -2.5 88 88 NNW 10 17 29.83 1010 5 8.0467 0 0
5:55 am 05:55 Cloudy 30 -1.2 27 -2.7 90 90 NNW 7 11 29.84 1010 10 16.0934 0 0
6:15 am 06:15 Mostly Cloudy 29 -1.7 27 -3 91 91 NW 5 7 29.85 1011 10 16.0934 0 0
6:35 am 06:35 Cloudy 28 -2 26 -3.2 92 92 NW 5 7 29.86 1011 10 16.0934 0 0
6:55 am 06:55 Cloudy 29 -1.6 27 -2.9 91 91 NW 6 9 29.86 1011 10 16.0934 0 0
7:15 am 07:15 Cloudy 28 -2.1 26 -3.3 92 92 NW 6 9 29.87 1012 10 16.0934 0 0
7:35 am 07:35 Cloudy 29 -1.9 26 -3.6 88 88 NW 6 9 29.88 1012 10 16.0934 0 0
7:55 am 07:55 Mostly Cloudy 27 -3 24 -4.3 91 91 NW 7 11 29.9 1013 10 16.0934 0 0
8:15 am 08:15 Mostly Cloudy 28 -2.4 25 -3.7 91 91 NW 6 9 29.91 1013 10 16.0934 0 0
8:35 am 08:35 Cloudy 29 -1.4 26 -3.1 88 88 NW 5 7 29.91 1013 10 16.0934 0 0
8:55 am 08:55 Cloudy 30 -1 26 -3.2 85 85 NNW 8 13 29.91 1013 10 16.0934 0 0
9:15 am 09:15 Cloudy 30 -1.1 26 -3.5 84 84 N 8 13 29.92 1013 10 16.0934 0 0
9:35 am 09:35 Cloudy 30 -1.3 26 -3.6 85 85 N 8 13 29.93 1013 10 16.0934 0 0
9:55 am 09:55 Cloudy 30 -1.3 24 -4.2 81 81 N 10 17 29.94 1014 10 16.0934 0 0
10:15 am 10:15 Cloudy 30 -1 24 -4.2 79 79 N 8 13 29.93 1014 10 16.0934 0 0
10:35 am 10:35 Cloudy 31 -0.7 25 -3.9 79 79 N 9 15 29.94 1014 10 16.0934 0 0
10:55 am 10:55 Cloudy 32 -0.1 25 -3.9 76 76 NNW 9 15 29.94 1014 10 16.0934 0 0
11:15 am 11:15 Cloudy 32 0.2 25 -4 74 74 NNW 7 11 29.94 1014 10 16.0934 0 0
11:35 am 11:35 Mostly Cloudy 34 0.9 24 -4.3 69 69 NNW 9 15 29.94 1014 10 16.0934 0 0
11:55 am 11:55 Cloudy 34 1.1 23 -4.9 65 65 NNW 10 17 29.93 1014 10 16.0934 0 0
12:15 pm 12:15 Cloudy 34 1.3 23 -5 63 63 NNW 10 17 29.92 1013 10 16.0934 0 0
12:35 pm 12:35 Cloudy 35 1.6 23 -4.9 62 62 NNW 7 11 29.93 1014 10 16.0934 0 0
12:55 pm 12:55 Cloudy 35 1.9 23 -4.9 61 61 NNW 9 15 29.92 1013 10 16.0934 0 0
1:15 pm 13:15 Cloudy 35 1.8 23 -5.1 61 61 NNW 6 9 29.93 1013 10 16.0934 0 0
1:35 pm 13:35 Cloudy 35 1.7 23 -5 61 61 N 9 15 29.93 1013 10 16.0934 0 0
1:55 pm 13:55 Cloudy 35 1.8 23 -4.8 62 62 NW 9 15 29.93 1013 10 16.0934 0 0
2:15 pm 14:15 Cloudy 35 1.8 24 -4.6 63 63 NW 12 19 29.94 1014 10 16.0934 0 0
2:35 pm 14:35 Cloudy 36 2 24 -4.5 62 62 NW 7 11 29.94 1014 10 16.0934 0 0
2:55 pm 14:55 Cloudy 35 1.9 23 -5 61 61 NW 8 13 29.95 1014 10 16.0934 0 0
3:15 pm 15:15 Cloudy 35 1.9 23 -5 61 61 N 9 15 29.96 1014 10 16.0934 0 0
3:35 pm 15:35 Cloudy 35 1.5 23 -5 62 62 NNE 12 19 29.97 1015 10 16.0934 0 0
3:55 pm 15:55 Cloudy 36 2 23 -4.8 61 61 N 10 17 29.97 1015 10 16.0934 0 0
4:15 pm 16:15 Cloudy 35 1.6 23 -5 62 62 N 10 17 29.98 1015 10 16.0934 0 0
4:35 pm 16:35 Cloudy 34 1.2 23 -5.1 63 63 N 10 17 29.98 1015 10 16.0934 0 0
4:55 pm 16:55 Cloudy 33 0.6 23 -5 66 66 N 8 13 30 1016 10 16.0934 0 0
5:15 pm 17:15 Cloudy 33 0.5 23 -5.1 66 66 NNE 7 11 30.01 1016 10 16.0934 0 0
5:35 pm 17:35 Cloudy 32 0.2 23 -5.1 68 68 NNE 8 13 30.02 1017 10 16.0934 0 0
5:55 pm 17:55 Cloudy 32 0 23 -5.1 69 69 NNE 6 9 30.03 1017 10 16.0934 0 0
6:15 pm 18:15 Cloudy 30 -1.1 22 -5.4 73 73 NE 6 9 30.06 1018 10 16.0934 0 0
6:35 pm 18:35 Partly Cloudy 28 -2.1 22 -5.6 77 77 NNE 3 6 30.07 1018 10 16.0934 0 0
6:55 pm 18:55 Partly Cloudy 28 -2.2 22 -5.5 78 78 NNE 3 6 30.09 1019 10 16.0934 0 0
7:15 pm 19:15 Mostly Cloudy 27 -2.6 22 -5.6 80 80 NNE 3 6 30.1 1019 10 16.0934 0 0
7:35 pm 19:35 Mostly Cloudy 25 -3.8 21 -6.1 84 84 NNE 5 7 30.12 1020 10 16.0934 0 0
7:55 pm 19:55 Cloudy 27 -2.6 23 -5 84 84 NE 5 7 30.11 1020 10 16.0934 0 0
8:15 pm 20:15 Partly Cloudy 25 -4.1 20 -6.4 84 84 NE 5 7 30.13 1020 10 16.0934 0 0
8:35 pm 20:35 Mostly Cloudy 25 -3.9 21 -6 86 86 Calm 30.14 1021 10 16.0934 0 0
8:55 pm 20:55 Cloudy 25 -4.1 21 -6.2 86 86 NE 3 6 30.14 1021 10 16.0934 0 0
9:15 pm 21:15 Partly Cloudy 24 -4.3 20 -6.4 85 85 Calm 30.16 1021 10 16.0934 0 0
9:35 pm 21:35 Clear 24 -4.4 21 -6.2 87 87 Calm 30.16 1021 10 16.0934 0 0
9:55 pm 21:55 Clear 24 -4.3 21 -6.2 87 87 Calm 30.16 1021 10 16.0934 0 0
10:15 pm 22:15 Clear 24 -4.5 20 -6.5 86 86 SSW 3 6 30.18 1022 10 16.0934 0 0
10:35 pm 22:35 Clear 24 -4.6 20 -6.6 86 86 SW 3 6 30.18 1022 10 16.0934 0 0
10:55 pm 22:55 Clear 23 -4.8 20 -6.7 87 87 Calm 30.18 1022 10 16.0934 0 0
11:15 pm 23:15 Clear 23 -4.8 20 -6.8 86 86 SSW 3 6 30.19 1022 10 16.0934 0 0
11:35 pm 23:35 Clear 23 -5 19 -7 86 86 SSW 5 7 30.19 1022 10 16.0934 0 0
11:55 pm 23:55 Clear 24 -4.7 19 -7 84 84 SSW 5 7 30.19 1022 10 16.0934 0 0

Powered by AerisWeather